When you browse on this site, cookies collect data to enhance your experience and personalize the content and advertising you see.
Visit our Privacy Policy to learn more. By continuing to use the site, you agree to this use of cookies and data.
  • In Hungary
  • List of Countries
  • For 7 days
  • Water Temperature
  • Weather Map
  • News
  • Weather Widgets
  • user-avatar
    Login

    Hourly Weather Yavorivka

    Today, 29 March, Sunday

    Time Temperature Precipitation Wind Pressure Humidity
    00:00 +7°C° 0 mm 1 mps 725 mmHg 84%
    01:00 +7°C° 0 mm 1 mps 724 mmHg 83%
    02:00 +5°C° 0 mm 1 mps 724 mmHg 69%
    03:00 +5°C° 0 mm 1 mps 723 mmHg 74%
    04:00 +4°C° 0 mm 2 mps 723 mmHg 77%
    05:00 +5°C° 0 mm 1 mps 723 mmHg 78%
    06:00 +5°C° 0 mm 1 mps 723 mmHg 76%
    07:00 +5°C° 0 mm 1 mps 723 mmHg 73%
    08:00 +5°C° 0 mm 2 mps 723 mmHg 79%
    09:00 +7°C° 0 mm 2 mps 723 mmHg 76%
    10:00 +9°C° 0 mm 2 mps 724 mmHg 76%
    11:00 +10°C° 0 mm 2 mps 724 mmHg 77%
    12:00 +12°C° 0 mm 2 mps 724 mmHg 76%
    13:00 +12°C° 0 mm 3 mps 723 mmHg 74%
    14:00 +12°C° 0 mm 4 mps 723 mmHg 69%
    15:00 +12°C° 0 mm 4 mps 722 mmHg 68%
    16:00 +12°C° 0 mm 4 mps 722 mmHg 70%
    17:00 +12°C° 0 mm 4 mps 722 mmHg 73%
    18:00 +11°C° 0 mm 3 mps 722 mmHg 78%
    19:00 +10°C° 0 mm 2 mps 722 mmHg 90%
    20:00 +8°C° 0 mm 3 mps 722 mmHg 94%
    21:00 +8°C° 0 mm 2 mps 722 mmHg 93%
    22:00 +7°C° 0 mm 2 mps 722 mmHg 97%
    23:00 +6°C° 0 mm 2 mps 722 mmHg 98%

    Tomorrow, 30 March, Monday

    Time Temperature Precipitation Wind Pressure Humidity
    00:00 +6°C° 0 mm 2 mps 722 mmHg 100%
    01:00 +6°C° 0 mm 2 mps 722 mmHg 100%
    02:00 +6°C° 0 mm 2 mps 722 mmHg 100%
    03:00 +5°C° 0 mm 2 mps 722 mmHg 100%
    04:00 +5°C° 0 mm 3 mps 722 mmHg 100%
    05:00 +5°C° 0 mm 3 mps 722 mmHg 100%
    06:00 +5°C° 0 mm 3 mps 722 mmHg 100%
    07:00 +5°C° 0.1 mm 4 mps 722 mmHg 98%
    08:00 -1°C° 0 mm 8 mps 723 mmHg 100%
    09:00 -1°C° 0.1 mm 7 mps 723 mmHg 100%
    10:00 -2°C° 0.3 mm 7 mps 725 mmHg 100%
    11:00 -1°C° 0.2 mm 7 mps 725 mmHg 100%
    12:00 -1°C° 0.2 mm 7 mps 726 mmHg 100%
    13:00 -1°C° 0.1 mm 7 mps 727 mmHg 100%
    14:00 -1°C° 0.1 mm 7 mps 727 mmHg 98%
    15:00 -1°C° 0.1 mm 7 mps 727 mmHg 99%
    16:00 -1°C° 0 mm 6 mps 727 mmHg 95%
    17:00 -1°C° 0.2 mm 6 mps 727 mmHg 96%
    18:00 -1°C° 0 mm 5 mps 728 mmHg 93%
    19:00 -2°C° 0 mm 5 mps 728 mmHg 95%
    20:00 -2°C° 0 mm 4 mps 729 mmHg 95%
    21:00 -2°C° 0.1 mm 3 mps 729 mmHg 100%
    22:00 -4°C° 0.1 mm 5 mps 729 mmHg 97%
    23:00 -4°C° 0 mm 4 mps 730 mmHg 98%

    Day after tomorrow, 31 March, Tuesday

    Time Temperature Precipitation Wind Pressure Humidity
    00:00 -4°C° 0 mm 4 mps 730 mmHg 98%
    01:00 -4°C° 0 mm 4 mps 730 mmHg 99%
    02:00 -4°C° 0 mm 4 mps 730 mmHg 99%
    03:00 -4°C° 0 mm 3 mps 730 mmHg 100%
    04:00 -4°C° 0 mm 3 mps 730 mmHg 100%
    05:00 -4°C° 0 mm 3 mps 730 mmHg 100%
    06:00 -4°C° 0 mm 3 mps 731 mmHg 100%
    07:00 -4°C° 0 mm 3 mps 731 mmHg 99%
    08:00 -2°C° 0 mm 3 mps 732 mmHg 94%
    09:00 -2°C° 0 mm 3 mps 732 mmHg 92%
    10:00 -1°C° 0.1 mm 3 mps 732 mmHg 94%
    11:00 -1°C° 0.1 mm 4 mps 732 mmHg 88%
    12:00 0°C° 0.2 mm 4 mps 732 mmHg 84%
    13:00 +1°C° 0 mm 3 mps 732 mmHg 78%
    14:00 +2°C° 0 mm 3 mps 732 mmHg 78%
    15:00 +2°C° 0.5 mm 3 mps 732 mmHg 87%
    16:00 +1°C° 1.7 mm 2 mps 731 mmHg 92%
    17:00 -1°C° 1.2 mm 4 mps 732 mmHg 99%
    18:00 +1°C° 0.2 mm 2 mps 732 mmHg 96%
    19:00 -1°C° 0 mm 4 mps 732 mmHg 92%
    20:00 -2°C° 0.1 mm 4 mps 732 mmHg 96%
    21:00 -1°C° 0 mm 2 mps 733 mmHg 92%
    22:00 -1°C° 0 mm 2 mps 733 mmHg 98%
    23:00 -2°C° 0 mm 2 mps 733 mmHg 99%

    1 April, Wednesday

    Time Temperature Precipitation Wind Pressure Humidity
    00:00 -2°C° 0 mm 2 mps 733 mmHg 100%
    01:00 -2°C° 0 mm 2 mps 732 mmHg 100%
    02:00 0°C° 0 mm 1 mps 733 mmHg 100%
    03:00 0°C° 0 mm 1 mps 732 mmHg 100%
    04:00 -2°C° 0 mm 0 mps 732 mmHg 100%
    05:00 0°C° 0 mm 1 mps 732 mmHg 100%
    06:00 0°C° 0.1 mm 1 mps 731 mmHg 100%
    07:00 0°C° 0.1 mm 1 mps 732 mmHg 100%
    08:00 0°C° 0.1 mm 1 mps 732 mmHg 98%
    09:00 -1°C° 0 mm 2 mps 731 mmHg 96%
    10:00 +1°C° 0 mm 2 mps 731 mmHg 95%
    11:00 0°C° 0.1 mm 3 mps 731 mmHg 95%
    12:00 +1°C° 0 mm 3 mps 731 mmHg 92%
    13:00 +2°C° 0 mm 3 mps 731 mmHg 92%
    14:00 +4°C° 0.1 mm 2 mps 730 mmHg 95%
    15:00 +3°C° 0.1 mm 3 mps 730 mmHg 87%
    16:00 +4°C° 0 mm 3 mps 729 mmHg 86%
    17:00 +5°C° 0 mm 2 mps 729 mmHg 88%
    18:00 +5°C° 0 mm 2 mps 728 mmHg 88%
    19:00 +5°C° 0 mm 1 mps 728 mmHg 91%
    20:00 +4°C° 0 mm 1 mps 729 mmHg 95%
    21:00 +4°C° 0 mm 1 mps 728 mmHg 96%
    22:00 +4°C° 0 mm 1 mps 728 mmHg 94%
    23:00 +3°C° 0 mm 1 mps 728 mmHg 96%

    2 April, Thursday

    Time Temperature Precipitation Wind Pressure Humidity
    00:00 +3°C° 0 mm 1 mps 728 mmHg 93%
    01:00 +2°C° 0 mm 1 mps 727 mmHg 89%
    02:00 +2°C° 0 mm 1 mps 727 mmHg 88%
    03:00 +2°C° 0 mm 1 mps 727 mmHg 85%
    04:00 +2°C° 0 mm 1 mps 726 mmHg 84%
    05:00 +2°C° 0 mm 1 mps 726 mmHg 80%
    06:00 -1°C° 0 mm 2 mps 726 mmHg 84%
    07:00 +1°C° 0 mm 2 mps 727 mmHg 90%
    08:00 +2°C° 0 mm 2 mps 727 mmHg 87%
    09:00 +3°C° 0 mm 3 mps 727 mmHg 80%
    10:00 +5°C° 0 mm 4 mps 727 mmHg 74%
    11:00 +6°C° 0 mm 4 mps 727 mmHg 74%
    12:00 +6°C° 0 mm 4 mps 727 mmHg 75%
    13:00 +7°C° 0 mm 4 mps 727 mmHg 74%
    14:00 +7°C° 0 mm 4 mps 726 mmHg 74%
    15:00 +7°C° 0 mm 5 mps 726 mmHg 75%
    16:00 +8°C° 0 mm 5 mps 726 mmHg 74%
    17:00 +7°C° 0 mm 5 mps 725 mmHg 74%
    18:00 +6°C° 0 mm 5 mps 725 mmHg 79%
    19:00 +5°C° 0 mm 4 mps 725 mmHg 81%
    20:00 +5°C° 0 mm 2 mps 725 mmHg 87%
    21:00 +4°C° 0 mm 2 mps 725 mmHg 85%
    22:00 +5°C° 0 mm 1 mps 725 mmHg 83%
    23:00 +5°C° 0 mm 1 mps 725 mmHg 83%

    3 April, Friday

    Time Temperature Precipitation Wind Pressure Humidity
    00:00 +4°C° 0 mm 1 mps 726 mmHg 88%
    01:00 +3°C° 0 mm 2 mps 726 mmHg 94%
    02:00 +3°C° 0.1 mm 2 mps 726 mmHg 100%
    03:00 +3°C° 0 mm 2 mps 725 mmHg 97%
    04:00 +1°C° 0 mm 4 mps 725 mmHg 94%
    05:00 +2°C° 0 mm 3 mps 725 mmHg 91%
    06:00 +4°C° 0 mm 1 mps 725 mmHg 90%
    07:00 +4°C° 0 mm 2 mps 726 mmHg 92%
    08:00 +4°C° 0 mm 3 mps 726 mmHg 90%
    09:00 +5°C° 0 mm 4 mps 726 mmHg 86%
    10:00 +7°C° 0 mm 4 mps 726 mmHg 82%
    11:00 +8°C° 0 mm 5 mps 726 mmHg 79%
    12:00 +8°C° 0 mm 5 mps 726 mmHg 77%
    13:00 +9°C° 0 mm 5 mps 726 mmHg 76%
    14:00 +9°C° 0 mm 5 mps 726 mmHg 75%
    15:00 +9°C° 0 mm 5 mps 726 mmHg 75%
    16:00 +10°C° 0 mm 4 mps 725 mmHg 70%
    17:00 +10°C° 0 mm 3 mps 725 mmHg 72%
    18:00 +10°C° 0 mm 3 mps 724 mmHg 77%
    19:00 +9°C° 0 mm 1 mps 724 mmHg 82%
    20:00 +8°C° 0 mm 2 mps 724 mmHg 81%
    21:00 +7°C° 0 mm 2 mps 724 mmHg 78%
    22:00 +7°C° 0 mm 1 mps 724 mmHg 76%
    23:00 +7°C° 0 mm 1 mps 724 mmHg 77%
    Show more